sat.trackr.live / text

‹ back to catalog

LES-5

NORAD 2866 · 1967-066E

PAYLOAD ACTIVE UNKNOWN

§ Identity

Operator
Country
US
Launch date
1967-07-01
Launch site
AFETR
Launch vehicle
Mass (kg)
RCS (m²)
2.56

External: N2YO · Heavens-Above · Gunter

§ Orbital elements

Epoch: 2026-09-20T03:57:09.260064Z

Period
1,315.96 min
Inclination
2.8384°
Eccentricity
0.0052129
Mean motion
1.09426095 rev/d
Perigee alt
33,193.6 km
Apogee alt
33,608.3 km
Semi-major
39,779.1 km
B*
0.0000e+0
RAAN
93.6009°
Arg perigee
214.8063°
Mean anomaly
6.0977°
Rev number
13,207

§ Raw data

LES-51 02866U 67066E   26263.16469051 -.00000112  00000+0  00000+0 0  99912 02866   2.8384  93.6009 0052129 214.8063   6.0977  1.09426095132077

JSON: /api/v1/satellites/2866 · /tle

For live sub-satellite position, see the globe view (requires WebGL).

§ Visibility from observer

Set your observer location to see the next 7 days of passes ≥ 10°. The values pass through the URL so the page stays shareable.

No JS? Fill the form by hand. The geolocation button needs JavaScript.